Simultaneous Nadir Overpasses (SNOs) Predictions

Prediction of SNOs between GOES-16 and METOP-A Satellite Orbit:

Table of predicted SNOs for the next 14.0 days since TLE Epoch: 10/23/2021
Index Date Time (GOES-16) GOES-16 Lat,Lon METOP-A Lat,Lon Distance(km) Time Diff (sec)
1 10/23/2021 12:40:21 0.04, -75.21 -0.67, -72.07 358.23 80
2 10/25/2021 01:01:59 -0.05, -75.19 -0.37, -76.70 171.60 80
3 10/26/2021 00:38:38 -0.06, -75.20 0.68, -71.71 396.09 80
4 10/27/2021 13:00:09 0.06, -75.23 0.28, -76.32 124.41 80
5 10/28/2021 12:36:48 0.06, -75.23 -0.77, -71.33 443.47 80
6 10/30/2021 00:58:27 -0.07, -75.22 -0.22, -75.98 85.66 80
7 10/31/2021 00:35:05 -0.07, -75.23 0.84, -70.99 482.60 80
8 11/01/2021 12:56:37 0.07, -75.27 0.12, -75.60 36.92 80
9 11/04/2021 00:52:15 -0.07, -75.28 -0.05, -75.25 4.02 80
